Sacramento, CA

8:34 AM PST on December 06, 2016 (GMT -0800)
Sacramento International

Weather History for KSMF - August, 2013

Change the Weather History Date:

Saturday, August 31, 2013

  Actual Average Record
Temperature  
Mean Temperature 80 °F -  
Max Temperature 95 °F 90 °F 104 °F (1976)
Min Temperature 64 °F 57 °F 50 °F (1957)
Cooling Degree Days 14    
Growing Degree Days 30 (Base 50)    
Moisture  
Dew Point 54 °F    
Average Humidity 50    
Maximum Humidity 78    
Minimum Humidity 15    
Precipitation  
Precipitation 0.00 in - - ()
Sea Level Pressure  
Sea Level Pressure 29.87 in    
Wind  
Wind Speed 8 mph (South)    
Max Wind Speed 16 mph    
Max Gust Speed -    
Visibility 10 miles    
Events      
Averages and records for this station are not official NWS values.
T = Trace of Precipitation, MM = Missing Value Source: NWS Daily Summary

Daily Weather History Graph

Daily Weather History Graph

Search for Another Location

Airport or City:

Trip Planner

Search our weather history database for the weather conditions in past years. The results will help you decide how hot, cold, wet, or windy it might be!

Date:

Astronomy

Aug. 31, 2013 Rise Set
Actual Time 6:34 AM PDT 7:37 PM PDT
Civil Twilight 6:07 AM PDT 8:04 PM PDT
Nautical Twilight 5:35 AM PDT 8:37 PM PDT
Astronomical Twilight 5:01 AM PDT 9:10 PM PDT
Moon 2:10 AM PDT (8/31) 4:37 PM PDT (8/31)
Length of Visible Light 13h 57m
Length of Day
13h 02m
Waning Crescent, 20% of the Moon is Illuminated
Aug 31
Waning Crescent
Sep 5
New
Sep 12
First Quarter
Sep 19
Full
Sep 26
Last Quarter

Hourly Weather History & Observations

Time (PDT) Temp. Heat Index Dew Point Humidity Pressure Visibility Wind Dir Wind Speed Gust Speed Precip Events Conditions
12:53 AM 71.1 °F - 55.9 °F 59% 29.89 in 10.0 mi SE 8.1 mph - N/A   Clear
1:53 AM 70.0 °F - 55.9 °F 61% 29.89 in 10.0 mi South 8.1 mph - N/A   Clear
2:53 AM 69.1 °F - 57.0 °F 65% 29.88 in 10.0 mi South 6.9 mph - N/A   Clear
3:53 AM 66.9 °F - 55.9 °F 68% 29.88 in 10.0 mi SSE 6.9 mph - N/A   Clear
4:53 AM 64.9 °F - 57.0 °F 75% 29.88 in 10.0 mi SE 6.9 mph - N/A   Clear
5:53 AM 64.9 °F - 57.0 °F 75% 29.88 in 10.0 mi SSE 6.9 mph - N/A   Clear
6:53 AM 64.0 °F - 57.0 °F 78% 29.90 in 10.0 mi SE 6.9 mph - N/A   Clear
7:53 AM 66.9 °F - 57.9 °F 73% 29.91 in 10.0 mi SSE 6.9 mph - N/A   Clear
8:53 AM 70.0 °F - 59.0 °F 68% 29.91 in 10.0 mi South 5.8 mph - N/A   Clear
9:53 AM 73.9 °F - 59.0 °F 59% 29.92 in 10.0 mi SSE 3.5 mph - N/A   Clear
10:53 AM 79.0 °F - 57.9 °F 48% 29.92 in 10.0 mi South 5.8 mph - N/A   Clear
11:53 AM 84.9 °F 84.4 °F 59.0 °F 41% 29.91 in 10.0 mi SSE 5.8 mph - N/A   Clear
12:53 PM 89.1 °F 88.0 °F 57.9 °F 35% 29.89 in 10.0 mi South 8.1 mph - N/A   Clear
1:53 PM 91.9 °F 90.0 °F 55.0 °F 29% 29.87 in 10.0 mi SSW 10.4 mph - N/A   Partly Cloudy
2:53 PM 93.9 °F - 46.9 °F 20% 29.85 in 10.0 mi SSW 11.5 mph - N/A   Scattered Clouds
3:53 PM 95.0 °F - 41.0 °F 15% 29.83 in 10.0 mi SSW 13.8 mph - N/A   Partly Cloudy
4:53 PM 93.9 °F - 43.0 °F 17% 29.82 in 10.0 mi South 12.7 mph - N/A   Partly Cloudy
5:53 PM 91.0 °F - 46.9 °F 22% 29.81 in 10.0 mi South 16.1 mph - N/A   Partly Cloudy
6:53 PM 84.0 °F 82.6 °F 54.0 °F 35% 29.81 in 10.0 mi South 15.0 mph - N/A   Partly Cloudy
7:53 PM 78.1 °F - 53.1 °F 42% 29.82 in 10.0 mi South 11.5 mph - N/A   Scattered Clouds
8:53 PM 73.9 °F - 50.0 °F 43% 29.83 in 10.0 mi South 10.4 mph - N/A   Scattered Clouds
9:53 PM 72.0 °F - 51.1 °F 48% 29.84 in 10.0 mi South 13.8 mph - N/A   Scattered Clouds
10:53 PM 68.0 °F - 53.1 °F 59% 29.85 in 10.0 mi South 10.4 mph - N/A   Scattered Clouds
11:53 PM 66.9 °F - 54.0 °F 63% 29.86 in 10.0 mi SSE 9.2 mph - N/A   Scattered Clouds